Helicity
47 63 59 69 71 51 45 37 24 23 23 15 17 16 17 18 17 14 16 16 11 10 18 29 38 55 63 47 49 61 63 46 24 14 9 9 17 17 21 24 12 24 37
65 65 72 76 66 52 42 32 27 24 22 18 24 25 29 32 34 34 37 35 35 35 34 37 46 51 58 54 43 37 24 17 15 7 1 9 13 6 4 14 14 30 23
77 77 78 77 62 52 40 32 30 26 27 26 27 34 36 39 45 46 47 47 44 40 37 34 36 42 44 41 30 21 10 2 3 0 8 18 17 24 4 7 19 16 16
78 67 65 73 60 51 44 40 39 38 37 38 36 36 41 41 46 48 48 44 40 40 40 37 32 34 32 21 13 8 3 9 12 6 25 19 20 41 22 23 33 17 6
66 66 69 60 61 53 46 48 49 47 46 43 46 40 38 40 44 46 42 44 44 41 42 41 42 40 36 29 20 15 4 6 14 22 36 33 28 77 74 76 42 42 49
72 54 68 57 56 52 45 50 55 54 52 49 46 45 45 47 50 53 48 41 38 35 33 37 44 47 45 43 38 26 26 19 6 37 46 54 74 79 86 99 85 67 43
77 58 53 51 51 49 46 47 50 51 53 53 54 54 55 53 53 54 48 44 40 36 40 48 46 47 51 50 49 50 47 39 39 51 59 74 115 120 115 106 94 91 67
67 63 51 50 47 50 46 44 46 50 56 56 55 53 52 53 52 50 48 46 42 40 41 43 44 46 50 53 57 61 61 51 58 70 74 84 105 110 111 93 81 71 57
64 48 51 40 46 50 51 46 48 52 53 52 53 50 49 50 55 54 54 48 42 38 38 41 41 40 40 45 46 48 50 48 56 77 75 83 98 90 94 95 91 76 76
78 42 45 44 30 30 43 63 58 52 48 52 54 47 47 53 50 48 39 47 39 39 38 42 39 37 31 32 37 41 34 29 62 65 74 100 95 105 93 98 119 114 123
81 61 31 45 38 36 44 55 54 57 53 46 42 38 20 29 34 40 48 42 41 40 37 38 38 31 16 33 35 30 13 44 51 64 74 87 93 102 98 90 93 97 95
80 65 48 38 53 44 38 35 41 38 28 25 25 23 23 30 38 34 36 35 37 28 33 30 30 24 17 28 36 33 40 40 48 57 81 84 92 95 109 103 82 65 92
72 73 65 47 55 43 38 32 34 33 30 26 24 18 25 27 23 23 23 24 24 22 27 26 29 31 35 33 34 38 39 43 52 61 99 98 99 99 106 106 113 92 120
77 77 77 59 59 49 37 34 42 38 37 28 24 23 20 23 25 29 32 33 31 31 38 35 32 31 31 29 37 38 46 50 56 66 103 100 102 105 108 118 134 127 129
81 86 76 70 64 58 46 48 51 53 41 38 28 22 20 28 35 33 44 40 44 37 39 35 33 34 36 39 42 43 45 51 56 68 76 106 102 107 117 136 146 145 140
92 88 82 72 68 62 56 55 60 58 49 37 30 28 32 39 41 44 47 50 50 44 40 37 41 41 40 42 42 47 52 58 60 68 81 101 105 105 105 112 122 133 136
100 98 84 81 78 67 64 66 68 62 46 36 36 35 37 39 48 55 60 60 55 49 42 40 41 37 40 42 41 50 55 60 67 75 79 84 95 98 104 108 104 92 94
122 97 101 93 81 74 76 73 71 67 55 46 40 39 34 46 58 66 67 67 63 55 45 43 46 44 47 49 52 59 64 64 71 78 78 74 79 74 78 91 89 85 82
108 115 104 98 90 95 92 85 80 73 59 56 47 42 49 60 70 71 71 76 62 55 54 50 51 51 53 64 63 72 81 87 86 80 81 73 80 71 71 82 73 69 71
115 114 116 119 105 107 112 108 94 77 70 62 61 63 69 76 76 68 75 79 65 60 60 58 56 59 64 72 63 71 79 84 85 97 94 86 97 99 96 89 80 82 78
137 130 122 113 102 115 116 114 96 79 73 74 79 86 84 82 75 80 85 73 65 65 69 69 70 77 77 77 60 76 76 82 98 91 87 98 107 111 110 94 87 77 68
138 118 110 100 107 105 104 104 106 96 92 103 103 99 88 81 92 88 77 72 68 70 81 87 86 77 84 94 85 66 93 86 83 95 88 94 98 80 76 72 69 62 58
129 109 97 95 100 100 108 123 126 127 120 107 101 99 100 96 97 81 76 74 84 87 96 96 89 91 91 85 85 83 92 135 103 93 71 67 75 84 78 78 76 73 76
109 103 103 116 115 104 100 101 99 103 111 110 99 107 115 110 93 80 80 90 97 98 98 96 85 81 71 91 75 84 82 89 128 132 78 69 68 68 70 64 66 56 70
102 116 121 128 119 107 101 104 110 116 111 97 105 113 101 96 88 90 95 103 105 99 98 92 88 85 85 87 85 78 75 72 68 113 125 113 67 54 62 63 61 56 54
125 138 136 120 116 111 110 112 106 91 87 98 101 92 88 93 103 108 113 109 107 105 104 105 103 95 88 80 76 76 83 109 117 111 115 98 93 66 51 35 44 58 57
Wind_Speed
35 33 34 32 30 31 33 35 37 38 40 42 43 44 44 45 45 45 44 43 42 41 40 40 39 39 36 32 33 38 39 38 34 33 31 29 30 30 32 33 33 33 35
35 32 30 26 26 28 29 32 34 36 38 40 42 44 45 46 47 47 47 47 46 46 45 44 44 44 42 40 38 37 36 34 31 28 25 20 21 22 21 22 28 32 32
32 30 24 22 23 24 26 29 31 34 36 39 41 42 44 45 46 47 47 47 47 47 47 46 46 46 46 44 42 41 38 34 31 27 21 21 21 20 16 16 18 23 26
31 27 22 21 22 23 24 27 29 32 34 36 39 40 42 44 45 46 47 47 48 48 48 48 47 47 47 46 44 43 42 39 37 29 26 26 23 27 24 17 18 20 25
32 25 22 21 20 21 23 25 27 30 32 34 36 39 41 43 45 46 47 48 49 49 50 50 50 50 49 48 46 45 43 40 36 32 34 33 27 38 31 31 25 28 33
34 28 24 21 20 21 21 23 25 27 30 32 34 37 40 42 44 46 47 48 49 50 51 50 51 51 51 50 47 48 47 43 33 35 35 35 35 37 35 33 32 35 36
32 30 26 22 21 21 21 22 23 26 28 31 33 36 38 40 43 45 46 48 49 50 51 52 52 52 51 50 49 48 48 45 38 36 35 35 38 38 37 35 33 34 36
28 30 28 23 21 20 20 21 22 25 27 30 32 34 36 39 42 44 45 47 49 50 51 52 52 52 52 51 51 49 47 45 38 37 35 34 39 37 36 36 35 35 36
23 27 28 25 21 20 19 20 22 24 26 29 31 34 35 38 41 43 45 47 49 50 51 52 53 52 51 51 51 49 47 44 40 38 36 34 42 38 37 36 37 37 40
17 20 24 25 22 20 19 20 21 24 27 28 31 33 34 37 39 42 43 47 48 50 51 53 53 52 51 50 50 49 46 39 41 38 36 40 40 39 37 37 38 39 42
9 14 18 21 21 19 19 19 21 23 26 28 30 32 33 35 38 40 44 46 48 50 51 52 53 52 50 49 51 50 45 43 41 39 38 44 42 39 37 38 41 45 46
6 8 13 17 19 19 18 18 20 23 26 28 30 31 33 35 38 39 42 45 47 49 50 51 52 51 50 50 49 46 47 45 42 40 40 45 44 43 41 42 45 48 48
5 3 9 13 16 18 17 17 20 22 25 28 29 31 32 34 36 39 41 44 46 49 50 51 52 52 52 51 50 49 47 45 42 40 42 46 46 45 44 42 46 46 45
9 3 4 8 11 14 15 17 19 21 24 27 29 30 32 34 36 39 42 44 46 48 50 52 52 52 52 51 50 49 48 45 43 41 41 45 46 45 44 44 46 46 46
12 8 3 4 7 11 13 16 19 21 24 26 28 30 32 34 36 39 42 44 47 48 51 52 52 52 52 52 50 50 48 46 43 41 39 41 44 44 43 43 44 45 45
19 13 6 1 4 8 12 14 18 21 23 26 28 30 32 34 36 39 42 45 47 49 50 51 53 53 52 52 51 51 49 46 42 38 37 37 41 43 43 42 43 45 45
26 18 11 6 3 6 10 13 17 20 23 26 28 29 31 33 36 39 43 45 47 48 50 52 53 51 52 51 51 50 49 47 42 38 37 37 37 39 42 43 44 48 47
27 22 16 11 6 6 10 13 16 19 23 26 29 30 31 34 36 40 43 45 46 48 50 52 52 53 53 52 53 51 50 47 43 39 39 37 37 38 38 43 46 47 50
33 25 21 15 10 10 12 14 17 20 24 27 29 30 32 34 36 40 42 44 46 48 49 51 51 52 53 55 55 52 51 49 44 42 41 39 39 38 39 40 43 47 50
36 30 23 19 15 14 15 17 19 22 26 27 29 31 32 34 35 38 41 43 45 47 48 49 50 50 51 56 55 53 48 46 43 43 43 41 40 42 43 45 45 44 50
40 34 27 22 18 15 16 18 23 24 27 29 30 31 32 34 35 37 40 42 44 46 46 47 49 52 53 57 53 52 47 43 46 46 46 44 43 43 45 48 48 48 48
42 37 31 26 19 17 18 21 26 26 30 32 31 32 32 33 35 37 38 40 41 42 44 47 49 52 52 57 57 54 57 48 45 52 48 46 45 46 49 53 56 55 56
46 41 35 29 22 19 19 20 25 29 32 33 34 34 35 35 35 35 35 37 39 41 44 45 49 51 54 54 54 54 57 57 65 48 49 48 49 53 59 61 58 59 57
45 39 35 29 24 21 19 22 26 34 36 37 36 36 36 36 35 33 33 36 38 40 42 45 46 49 52 55 51 52 51 53 61 64 51 51 54 60 58 55 59 55 55
44 38 33 29 25 23 22 24 28 35 37 37 38 38 37 35 34 33 34 35 37 40 43 44 47 48 49 51 52 53 53 53 53 60 71 63 64 56 58 59 57 54 53
39 36 32 29 27 25 24 26 31 36 39 41 40 39 38 35 34 34 35 35 38 40 42 44 46 47 48 48 50 52 54 58 62 62 69 73 74 63 66 63 64 60 58
Wind_Direction
109 99 97 89 75 71 66 60 58 54 55 58 60 65 62 60 61 63 64 63 63 61 57 53 50 47 49 53 48 31 28 27 37 36 37 40 30 24 17 11 6 3 355
105 99 92 76 68 62 51 49 47 46 47 51 56 58 56 56 54 52 52 49 47 47 46 44 42 40 41 42 43 43 38 39 41 46 54 71 70 59 51 38 19 2 358
100 96 79 65 60 49 41 39 40 42 42 45 47 40 44 44 46 44 39 38 37 34 36 37 35 32 32 34 35 36 39 43 42 44 59 61 61 58 67 59 47 29 12
99 90 75 68 57 45 38 37 37 37 36 38 38 36 35 37 38 39 38 37 34 29 26 26 30 29 26 27 32 32 30 33 35 46 47 40 43 31 33 51 46 32 20
99 86 75 66 51 41 37 36 36 37 36 37 34 33 32 33 32 34 33 33 33 31 26 21 17 18 20 21 23 23 25 29 37 41 32 30 38 16 24 23 27 18 7
101 88 79 63 49 41 36 35 33 33 34 34 33 32 29 29 27 28 27 27 28 27 25 25 17 11 11 16 21 15 14 20 36 31 30 30 29 23 27 26 19 11 6
99 91 83 66 52 44 38 32 32 32 31 31 30 28 26 25 23 23 23 22 24 22 21 19 17 13 11 11 13 14 12 17 25 25 22 21 14 15 18 17 13 7 1
97 95 88 70 56 46 38 32 31 31 28 27 25 24 24 22 20 20 22 21 21 20 18 15 14 12 9 7 7 10 11 12 21 19 18 15 5 6 5 4 2 359 352
90 93 92 80 59 45 37 33 30 25 20 19 19 19 20 20 19 20 19 17 18 17 17 14 13 12 10 8 6 9 10 10 13 14 14 13 358 359 358 358 355 353 346
87 85 87 84 73 55 42 29 22 15 14 17 17 16 20 21 20 18 20 15 16 14 14 14 15 13 12 10 11 10 12 18 13 13 13 5 1 0 359 357 353 348 342
85 84 82 82 73 57 45 28 19 13 12 17 15 14 19 16 15 15 15 15 13 14 14 15 14 13 13 12 9 10 14 13 13 12 11 2 1 360 359 353 349 339 334
133 94 82 80 78 66 41 32 8 6 1 3 6 7 9 11 10 12 13 12 11 13 14 14 13 14 14 12 12 15 11 10 11 10 8 2 359 356 353 349 342 334 330
175 109 87 79 74 71 50 28 12 3 0 0 2 4 7 8 7 7 7 7 8 9 9 9 9 9 9 9 8 8 8 10 9 8 5 360 357 355 353 350 344 340 339
215 190 101 77 69 57 43 24 13 7 1 358 359 1 3 2 2 3 3 4 4 5 4 4 3 4 5 6 5 5 6 7 7 5 4 2 0 360 357 351 344 342 343
223 225 196 83 58 44 42 19 6 0 359 358 357 357 359 359 360 0 1 0 1 1 1 0 360 0 1 1 3 3 3 2 2 3 5 5 3 3 1 357 350 344 342
235 234 230 221 17 30 24 24 5 357 354 354 354 356 357 358 358 358 358 357 358 358 359 358 357 357 357 359 359 359 359 359 1 3 5 6 5 3 1 0 353 344 343
240 241 244 255 316 3 7 11 3 355 351 348 351 355 355 357 357 357 355 355 356 357 356 355 355 357 357 358 357 357 357 356 358 360 360 0 2 2 357 355 352 342 340
237 241 249 265 282 326 342 357 357 351 347 345 345 348 351 353 355 353 353 354 355 355 354 354 354 355 356 357 356 356 356 356 357 359 358 358 359 358 359 354 348 344 336
239 241 250 260 273 300 323 341 348 345 341 343 344 344 346 349 351 350 351 353 353 353 353 354 355 356 355 355 352 355 355 355 358 358 357 356 356 356 354 352 346 339 334
240 246 251 262 273 290 311 327 335 336 334 340 341 342 344 345 348 349 350 351 352 352 353 355 355 356 356 351 350 352 356 357 358 357 355 354 352 348 346 344 342 340 333
241 246 250 257 267 283 302 316 321 326 329 334 340 341 342 343 346 346 347 349 351 351 354 355 354 352 351 351 351 349 351 355 353 353 353 350 348 349 346 341 338 336 334
238 245 251 257 263 278 298 310 319 325 326 332 338 340 340 341 343 344 345 347 351 353 354 354 354 349 351 351 347 346 343 346 350 345 347 347 346 343 340 335 332 329 327
239 244 249 255 262 277 294 309 319 324 328 330 333 337 338 339 341 343 346 348 351 352 350 352 349 349 346 349 351 347 341 339 338 345 342 341 340 337 333 330 329 327 326
242 244 249 254 263 277 288 302 311 313 318 324 331 335 337 339 341 344 347 348 349 349 349 348 349 348 347 345 348 349 346 342 337 334 341 339 337 333 332 332 331 329 326
241 244 249 255 265 277 287 301 309 312 319 326 329 330 334 338 342 344 346 346 346 346 345 346 345 346 346 345 344 343 342 341 339 333 329 332 331 333 332 331 329 328 325
241 245 252 257 267 278 288 299 306 310 316 320 323 326 330 337 342 344 343 344 343 343 343 343 344 345 345 345 344 342 340 338 335 332 328 326 326 329 325 323 322 320 318